• In Hungary
  • List of Countries
  • For 7 days
  • Water Temperature
  • Satellite Maps
  • Weather Map
  • News
  • Weather Widgets
  • user-avatar
    Login

    Hourly Weather New Delhi

    Today, 23 August, Wednesday

    Time Temperature Precipitation Wind Pressure Humidity
    00:00 +32°C° 2 mm 1 mps 732 mmHg 66%
    01:00 +32°C° 2 mm 1 mps 732 mmHg 69%
    02:00 +31°C° 2 mm 1 mps 732 mmHg 72%
    03:00 +31°C° 0.5 mm 1 mps 732 mmHg 72%
    04:00 +31°C° 0.5 mm 1 mps 732 mmHg 72%
    05:00 +31°C° 0 mm 1 mps 733 mmHg 71%
    06:00 +32°C° 0.8 mm 1 mps 733 mmHg 69%
    07:00 +32°C° 0.8 mm 1 mps 733 mmHg 67%
    08:00 +33°C° 0.8 mm 1 mps 733 mmHg 64%
    09:00 +34°C° 0.4 mm 1 mps 733 mmHg 59%
    10:00 +36°C° 0.4 mm 1 mps 733 mmHg 53%
    11:00 +37°C° 0.4 mm 1 mps 733 mmHg 48%
    12:00 +37°C° 0 mm 1 mps 733 mmHg 48%
    13:00 +37°C° 0 mm 1 mps 732 mmHg 48%
    14:00 +37°C° 0 mm 1 mps 732 mmHg 48%
    15:00 +37°C° 0 mm 1 mps 732 mmHg 49%
    16:00 +37°C° 0 mm 2 mps 731 mmHg 51%
    17:00 +37°C° 0 mm 2 mps 731 mmHg 53%
    18:00 +36°C° 0.1 mm 2 mps 731 mmHg 57%
    19:00 +35°C° 0.1 mm 2 mps 731 mmHg 60%
    20:00 +34°C° 0.1 mm 2 mps 731 mmHg 63%
    21:00 +34°C° 0.3 mm 2 mps 731 mmHg 65%
    22:00 +32°C° 0.3 mm 2 mps 731 mmHg 67%
    23:00 +32°C° 0.3 mm 2 mps 731 mmHg 69%

    Tomorrow, 24 August, Thursday

    Time Temperature Precipitation Wind Pressure Humidity
    00:00 +33°C° 0.3 mm 3 mps 731 mmHg 71%
    01:00 +31°C° 0.3 mm 3 mps 731 mmHg 72%
    02:00 +31°C° 0.3 mm 3 mps 731 mmHg 73%
    03:00 +31°C° 0 mm 2 mps 731 mmHg 73%
    04:00 +31°C° 0 mm 2 mps 731 mmHg 73%
    05:00 +31°C° 0 mm 2 mps 731 mmHg 74%
    06:00 +32°C° 0.1 mm 2 mps 732 mmHg 70%
    07:00 +34°C° 0.1 mm 2 mps 732 mmHg 66%
    08:00 +35°C° 0.1 mm 2 mps 732 mmHg 63%
    09:00 +36°C° 0.4 mm 2 mps 732 mmHg 57%
    10:00 +38°C° 0.4 mm 2 mps 732 mmHg 51%
    11:00 +39°C° 0.4 mm 2 mps 732 mmHg 46%
    12:00 +39°C° 0 mm 2 mps 732 mmHg 43%
    13:00 +40°C° 0 mm 2 mps 731 mmHg 41%
    14:00 +40°C° 0 mm 2 mps 731 mmHg 39%
    15:00 +40°C° 0 mm 2 mps 731 mmHg 41%
    16:00 +40°C° 0 mm 2 mps 730 mmHg 42%
    17:00 +39°C° 0 mm 2 mps 730 mmHg 44%
    18:00 +38°C° 0 mm 3 mps 730 mmHg 48%
    19:00 +37°C° 0 mm 3 mps 730 mmHg 52%
    20:00 +35°C° 0 mm 3 mps 730 mmHg 56%
    21:00 +35°C° 0 mm 3 mps 730 mmHg 57%
    22:00 +35°C° 0 mm 3 mps 730 mmHg 58%
    23:00 +34°C° 0 mm 3 mps 730 mmHg 60%

    Day after tomorrow, 25 August, Friday

    Time Temperature Precipitation Wind Pressure Humidity
    00:00 +33°C° 0.6 mm 3 mps 730 mmHg 63%
    01:00 +33°C° 0.6 mm 3 mps 730 mmHg 66%
    02:00 +31°C° 0.6 mm 2 mps 730 mmHg 69%
    03:00 +31°C° 0.3 mm 2 mps 730 mmHg 69%
    04:00 +31°C° 0.3 mm 2 mps 730 mmHg 69%
    05:00 +31°C° 0.3 mm 2 mps 730 mmHg 70%
    06:00 +32°C° 0 mm 2 mps 730 mmHg 68%
    07:00 +32°C° 0 mm 2 mps 731 mmHg 66%
    08:00 +34°C° 0 mm 2 mps 731 mmHg 64%
    09:00 +35°C° 0.4 mm 2 mps 731 mmHg 59%
    10:00 +37°C° 0.4 mm 2 mps 731 mmHg 54%
    11:00 +38°C° 0.4 mm 2 mps 731 mmHg 48%
    12:00 +38°C° 0.1 mm 2 mps 730 mmHg 49%
    13:00 +38°C° 0.1 mm 2 mps 730 mmHg 49%
    14:00 +38°C° 0.1 mm 3 mps 729 mmHg 49%
    15:00 +38°C° 0 mm 2 mps 729 mmHg 50%
    16:00 +37°C° 0 mm 2 mps 728 mmHg 51%
    17:00 +37°C° 0 mm 2 mps 728 mmHg 52%
    18:00 +35°C° 0 mm 1 mps 728 mmHg 53%
    19:00 +35°C° 0 mm 1 mps 728 mmHg 55%
    20:00 +34°C° 0 mm 1 mps 728 mmHg 56%
    21:00 +34°C° 0.2 mm 1 mps 728 mmHg 57%
    22:00 +33°C° 0.2 mm 1 mps 729 mmHg 58%
    23:00 +33°C° 0.2 mm 1 mps 729 mmHg 60%

    26 August, Saturday

    Time Temperature Precipitation Wind Pressure Humidity
    00:00 +33°C° 0 mm 1 mps 728 mmHg 61%
    01:00 +32°C° 0 mm 1 mps 728 mmHg 62%
    02:00 +32°C° 0 mm 1 mps 728 mmHg 63%
    03:00 +32°C° 0 mm 1 mps 728 mmHg 64%
    04:00 +32°C° 0 mm 1 mps 728 mmHg 65%
    05:00 +32°C° 0 mm 1 mps 729 mmHg 66%
    06:00 +32°C° 0 mm 1 mps 729 mmHg 64%
    07:00 +33°C° 0 mm 1 mps 730 mmHg 62%
    08:00 +34°C° 0 mm 1 mps 730 mmHg 60%
    09:00 +35°C° 0.1 mm 1 mps 730 mmHg 55%
    10:00 +38°C° 0.1 mm 2 mps 730 mmHg 49%
    11:00 +39°C° 0.1 mm 2 mps 730 mmHg 43%
    12:00 +40°C° 0 mm 2 mps 729 mmHg 41%
    13:00 +40°C° 0 mm 2 mps 728 mmHg 39%
    14:00 +41°C° 0 mm 2 mps 728 mmHg 37%
    15:00 +41°C° 0 mm 2 mps 728 mmHg 38%
    16:00 +40°C° 0 mm 2 mps 727 mmHg 39%
    17:00 +40°C° 0 mm 2 mps 727 mmHg 41%
    18:00 +39°C° 0.2 mm 2 mps 727 mmHg 44%
    19:00 +38°C° 0.2 mm 2 mps 728 mmHg 47%
    20:00 +36°C° 0.2 mm 3 mps 728 mmHg 51%
    21:00 +36°C° 0 mm 3 mps 728 mmHg 53%
    22:00 +35°C° 0 mm 3 mps 728 mmHg 55%
    23:00 +35°C° 0 mm 3 mps 728 mmHg 58%

    27 August, Sunday

    Time Temperature Precipitation Wind Pressure Humidity
    00:00 +34°C° 0 mm 3 mps 728 mmHg 61%
    01:00 +34°C° 0 mm 3 mps 728 mmHg 64%
    02:00 +33°C° 0 mm 3 mps 728 mmHg 67%
    03:00 +33°C° 0.3 mm 3 mps 728 mmHg 69%
    04:00 +32°C° 0.3 mm 2 mps 729 mmHg 70%
    05:00 +31°C° 0.3 mm 2 mps 729 mmHg 72%
    06:00 +32°C° 0.2 mm 2 mps 729 mmHg 69%
    07:00 +34°C° 0.2 mm 3 mps 730 mmHg 67%
    08:00 +35°C° 0.2 mm 3 mps 730 mmHg 64%
    09:00 +36°C° 0.1 mm 3 mps 730 mmHg 58%
    10:00 +37°C° 0.1 mm 3 mps 730 mmHg 51%
    11:00 +39°C° 0.1 mm 3 mps 730 mmHg 45%
    12:00 +40°C° 0 mm 4 mps 730 mmHg 43%
    13:00 +41°C° 0 mm 4 mps 729 mmHg 41%
    14:00 +41°C° 0 mm 4 mps 729 mmHg 39%
    15:00 +41°C° 0 mm 4 mps 729 mmHg 41%
    16:00 +40°C° 0 mm 4 mps 729 mmHg 44%
    17:00 +38°C° 0 mm 4 mps 729 mmHg 47%
    18:00 +37°C° 0 mm 5 mps 729 mmHg 51%
    19:00 +36°C° 0 mm 5 mps 729 mmHg 55%
    20:00 +34°C° 0 mm 5 mps 730 mmHg 59%
    21:00 +34°C° 0 mm 4 mps 730 mmHg 62%
    22:00 +33°C° 0 mm 4 mps 730 mmHg 64%
    23:00 +33°C° 0 mm 3 mps 730 mmHg 66%

    28 August, Monday

    Time Temperature Precipitation Wind Pressure Humidity
    00:00 +31°C° 0 mm 3 mps 730 mmHg 68%
    01:00 +31°C° 0 mm 3 mps 730 mmHg 69%
    02:00 +31°C° 0 mm 3 mps 730 mmHg 71%
    03:00 +31°C° 0 mm 3 mps 730 mmHg 71%
    04:00 +30°C° 0 mm 2 mps 730 mmHg 72%
    05:00 +30°C° 0 mm 2 mps 730 mmHg 72%
    06:00 +31°C° 0 mm 2 mps 731 mmHg 70%
    07:00 +31°C° 0 mm 3 mps 731 mmHg 67%
    08:00 +33°C° 0 mm 3 mps 732 mmHg 65%
    09:00 +35°C° 0 mm 3 mps 732 mmHg 59%
    10:00 +36°C° 0 mm 4 mps 732 mmHg 54%
    11:00 +39°C° 0 mm 5 mps 732 mmHg 49%
    12:00 +39°C° 0 mm 5 mps 731 mmHg 47%
    13:00 +39°C° 0 mm 5 mps 730 mmHg 46%
    14:00 +40°C° 0 mm 5 mps 730 mmHg 45%
    15:00 +39°C° 0 mm 5 mps 729 mmHg 46%
    16:00 +38°C° 0 mm 4 mps 729 mmHg 48%
    17:00 +38°C° 0 mm 4 mps 729 mmHg 49%
    18:00 +37°C° 0 mm 4 mps 729 mmHg 52%
    19:00 +36°C° 0 mm 3 mps 730 mmHg 55%
    20:00 +35°C° 0 mm 3 mps 730 mmHg 59%
    21:00 +34°C° 0.3 mm 3 mps 730 mmHg 61%
    22:00 +34°C° 0.3 mm 3 mps 730 mmHg 63%
    23:00 +33°C° 0.3 mm 3 mps 730 mmHg 66%
    Show more